TimePDT,TemperatureF,Dew PointF,Humidity,Sea Level PressureIn,VisibilityMPH,Wind Direction,Wind SpeedMPH,Gust SpeedMPH,PrecipitationIn,Events,Conditions,WindDirDegrees,DateUTC
12:15 AM,42.8,28.4,57,30.34,10.0,Calm,Calm,-,N/A,,Clear,0,2013-05-11 07:15:00
12:35 AM,41.0,28.4,61,30.34,10.0,Calm,Calm,-,N/A,,Clear,0,2013-05-11 07:35:00
12:55 AM,41.0,28.4,61,30.35,10.0,Calm,Calm,-,N/A,,Clear,0,2013-05-11 07:55:00
1:15 AM,41.0,28.4,61,30.34,10.0,Calm,Calm,-,N/A,,Clear,0,2013-05-11 08:15:00
1:35 AM,41.0,28.4,61,30.34,10.0,Calm,Calm,-,N/A,,Clear,0,2013-05-11 08:35:00
1:55 AM,39.2,28.4,65,30.34,10.0,Calm,Calm,-,N/A,,Clear,0,2013-05-11 08:55:00
2:15 AM,37.4,28.4,70,30.34,10.0,Calm,Calm,-,N/A,,Clear,0,2013-05-11 09:15:00
2:35 AM,37.4,28.4,70,30.34,10.0,Calm,Calm,-,N/A,,Clear,0,2013-05-11 09:35:00
2:55 AM,37.4,28.4,70,30.34,10.0,Calm,Calm,-,N/A,,Clear,0,2013-05-11 09:55:00
3:15 AM,35.6,28.4,75,30.34,10.0,Calm,Calm,-,N/A,,Clear,0,2013-05-11 10:15:00
3:35 AM,35.6,28.4,75,30.33,10.0,Calm,Calm,-,N/A,,Clear,0,2013-05-11 10:35:00
3:55 AM,35.6,28.4,75,30.33,10.0,Calm,Calm,-,N/A,,Clear,0,2013-05-11 10:55:00
4:15 AM,35.6,26.6,70,30.33,10.0,Calm,Calm,-,N/A,,Clear,0,2013-05-11 11:15:00
4:35 AM,35.6,26.6,70,30.33,10.0,Calm,Calm,-,N/A,,Clear,0,2013-05-11 11:35:00
4:55 AM,35.6,26.6,70,30.33,10.0,Calm,Calm,-,N/A,,Clear,0,2013-05-11 11:55:00
5:15 AM,33.8,26.6,75,30.33,10.0,Calm,Calm,-,N/A,,Clear,0,2013-05-11 12:15:00
5:35 AM,33.8,26.6,75,30.33,10.0,Calm,Calm,-,N/A,,Clear,0,2013-05-11 12:35:00
5:55 AM,33.8,26.6,75,30.34,10.0,Calm,Calm,-,N/A,,Clear,0,2013-05-11 12:55:00
6:15 AM,35.6,26.6,70,30.34,10.0,Calm,Calm,-,N/A,,Clear,0,2013-05-11 13:15:00
6:35 AM,35.6,28.4,75,30.35,10.0,Calm,Calm,-,N/A,,Clear,0,2013-05-11 13:35:00
6:55 AM,37.4,28.4,70,30.35,10.0,Calm,Calm,-,N/A,,Clear,0,2013-05-11 13:55:00
7:15 AM,42.8,28.4,57,30.35,10.0,Calm,Calm,-,N/A,,Clear,0,2013-05-11 14:15:00
7:35 AM,46.4,28.4,50,30.35,10.0,ENE,3.5,-,N/A,,Clear,70,2013-05-11 14:35:00
7:55 AM,50.0,30.2,47,30.35,10.0,ENE,4.6,-,N/A,,Clear,70,2013-05-11 14:55:00
8:15 AM,55.4,28.4,36,30.35,10.0,ENE,5.8,-,N/A,,Clear,60,2013-05-11 15:15:00
8:35 AM,60.8,26.6,27,30.35,10.0,ENE,8.1,-,N/A,,Clear,60,2013-05-11 15:35:00
8:55 AM,60.8,26.6,27,30.36,10.0,ENE,11.5,17.3,N/A,,Clear,70,2013-05-11 15:55:00
9:15 AM,60.8,26.6,27,30.36,10.0,NE,11.5,16.1,N/A,,Clear,40,2013-05-11 16:15:00
9:35 AM,62.6,23.0,22,30.36,10.0,NE,9.2,-,N/A,,Clear,50,2013-05-11 16:35:00
9:55 AM,62.6,23.0,22,30.37,10.0,NE,10.4,16.1,N/A,,Clear,40,2013-05-11 16:55:00
10:15 AM,62.6,23.0,22,30.37,10.0,NNE,11.5,17.3,N/A,,Clear,30,2013-05-11 17:15:00
10:35 AM,64.4,23.0,21,30.38,10.0,NE,12.7,19.6,N/A,,Clear,40,2013-05-11 17:35:00
10:55 AM,64.4,21.2,19,30.38,10.0,NE,11.5,21.9,N/A,,Clear,40,2013-05-11 17:55:00
11:15 AM,64.4,21.2,19,30.38,10.0,NE,9.2,18.4,N/A,,Clear,40,2013-05-11 18:15:00
11:35 AM,64.4,21.2,19,30.38,10.0,ENE,12.7,17.3,N/A,,Clear,70,2013-05-11 18:35:00
11:55 AM,64.4,19.4,18,30.38,10.0,East,10.4,17.3,N/A,,Clear,80,2013-05-11 18:55:00
12:15 PM,64.4,21.2,19,30.38,10.0,ENE,15.0,21.9,N/A,,Clear,60,2013-05-11 19:15:00
12:35 PM,66.2,17.6,15,30.39,10.0,NE,10.4,-,N/A,,Clear,40,2013-05-11 19:35:00
12:55 PM,66.2,21.2,18,30.39,10.0,ENE,9.2,20.7,N/A,,Clear,70,2013-05-11 19:55:00
1:15 PM,66.2,19.4,17,30.38,10.0,NNE,5.8,-,N/A,,Clear,20,2013-05-11 20:15:00
1:35 PM,68.0,17.6,15,30.38,10.0,NNE,11.5,18.4,N/A,,Clear,30,2013-05-11 20:35:00
1:55 PM,68.0,21.2,17,30.38,10.0,East,9.2,16.1,N/A,,Clear,80,2013-05-11 20:55:00
2:15 PM,68.0,19.4,16,30.38,10.0,NNE,6.9,-,N/A,,Clear,20,2013-05-11 21:15:00
2:35 PM,68.0,19.4,16,30.37,10.0,NE,10.4,16.1,N/A,,Clear,50,2013-05-11 21:35:00
2:55 PM,68.0,21.2,17,30.36,10.0,Calm,Calm,-,N/A,,Clear,0,2013-05-11 21:55:00
3:15 PM,68.0,19.4,16,30.36,10.0,NE,6.9,17.3,N/A,,Clear,50,2013-05-11 22:15:00
3:35 PM,68.0,21.2,17,30.35,10.0,East,8.1,-,N/A,,Clear,90,2013-05-11 22:35:00
3:55 PM,69.8,21.2,16,30.34,10.0,East,11.5,19.6,N/A,,Scattered Clouds,90,2013-05-11 22:55:00
4:15 PM,69.8,21.2,16,30.34,10.0,East,6.9,-,N/A,,Scattered Clouds,80,2013-05-11 23:15:00
4:35 PM,69.8,19.4,15,30.34,10.0,NE,10.4,19.6,N/A,,Clear,50,2013-05-11 23:35:00
4:55 PM,68.0,19.4,16,30.34,10.0,East,11.5,-,N/A,,Clear,80,2013-05-11 23:55:00
5:15 PM,68.0,19.4,16,30.34,10.0,East,8.1,-,N/A,,Clear,90,2013-05-12 00:15:00
5:35 PM,68.0,19.4,16,30.34,10.0,ENE,8.1,-,N/A,,Clear,60,2013-05-12 00:35:00
5:55 PM,68.0,19.4,16,30.34,10.0,NNE,4.6,-,N/A,,Clear,30,2013-05-12 00:55:00
6:15 PM,68.0,19.4,16,30.34,10.0,NE,6.9,-,N/A,,Clear,50,2013-05-12 01:15:00
6:35 PM,66.2,19.4,17,30.34,10.0,NNE,5.8,-,N/A,,Clear,30,2013-05-12 01:35:00
6:55 PM,66.2,21.2,18,30.34,10.0,NE,6.9,-,N/A,,Clear,50,2013-05-12 01:55:00
7:15 PM,64.4,21.2,19,30.35,10.0,NE,6.9,-,N/A,,Clear,40,2013-05-12 02:15:00
7:35 PM,64.4,21.2,19,30.35,10.0,NE,4.6,-,N/A,,Clear,40,2013-05-12 02:35:00
7:55 PM,62.6,21.2,20,30.35,10.0,Calm,Calm,-,N/A,,Clear,0,2013-05-12 02:55:00
8:15 PM,59.0,21.2,23,30.36,10.0,NE,3.5,-,N/A,,Clear,40,2013-05-12 03:15:00
8:35 PM,55.4,23.0,29,30.37,10.0,Calm,Calm,-,N/A,,Clear,0,2013-05-12 03:35:00
8:55 PM,55.4,23.0,29,30.38,10.0,Calm,Calm,-,N/A,,Clear,0,2013-05-12 03:55:00
9:15 PM,51.8,23.0,33,30.38,10.0,Calm,Calm,-,N/A,,Clear,0,2013-05-12 04:15:00
9:35 PM,51.8,23.0,33,30.39,10.0,Calm,Calm,-,N/A,,Clear,0,2013-05-12 04:35:00
9:55 PM,50.0,23.0,35,30.39,10.0,Calm,Calm,-,N/A,,Scattered Clouds,0,2013-05-12 04:55:00
10:15 PM,46.4,23.0,40,30.40,10.0,Calm,Calm,-,N/A,,Clear,0,2013-05-12 05:15:00
10:35 PM,46.4,23.0,40,30.40,10.0,Calm,Calm,-,N/A,,Clear,0,2013-05-12 05:35:00
10:55 PM,44.6,24.8,46,30.40,10.0,Calm,Calm,-,N/A,,Clear,0,2013-05-12 05:55:00
11:15 PM,44.6,24.8,46,30.40,10.0,Calm,Calm,-,N/A,,Clear,0,2013-05-12 06:15:00
11:35 PM,42.8,24.8,49,30.41,10.0,Calm,Calm,-,N/A,,Clear,0,2013-05-12 06:35:00
11:55 PM,44.6,24.8,46,30.41,10.0,Calm,Calm,-,N/A,,Clear,0,2013-05-12 06:55:00